FW7996 Weather Reports


Display with metric or nautical units.
time (UTC)temp
F
wind
direction
speed
MPH
gust
MPH
rain 1hr
in
rain 24hr
in
rain mn
in
humidity
%
barometer
mb
20210916224103 76 163 3.0 5.0 0.00 5.69 3.50 88 1014.2
20210916223603 77 160 5.0 5.0 0.00 5.69 3.50 88 1014.2
20210916223103 77 171 2.0 3.0 1.47 5.69 3.50 88 1014.2
20210916222603 76 170 3.0 6.0 1.47 5.69 3.50 88 1014.2
20210916222103 77 167 3.0 6.0 1.47 5.69 3.50 88 1014.2
20210916221603 77 179 6.0 8.0 1.47 5.69 3.50 88 1014.2
20210916221103 77 200 7.0 9.0 1.47 5.69 3.50 88 1014.2
20210916220603 77 219 7.0 10.0 1.47 5.69 3.50 88 1014.2
20210916220103 77 224 9.0 12.0 1.47 5.69 3.50 87 1014.2
20210916215603 77 224 10.0 12.0 1.47 5.69 3.50 87 1014.2
20210916215103 77 238 9.0 13.0 1.47 5.69 3.50 87 1014.2
20210916214602 78 210 10.0 13.0 1.47 5.69 3.50 87 1014.2
20210916214103 78 228 9.0 13.0 1.47 5.69 3.50 86 1014.2
20210916213603 76 265 5.0 9.0 1.47 5.69 3.50 87 1014.2
20210916213103 78 260 5.0 9.0 0.00 4.22 2.03 87 1014.2
20210916212603 79 257 7.0 9.0 0.00 4.24 2.03 87 1014.2
20210916212103 78 293 6.0 13.0 0.00 4.26 2.03 87 1014.2
20210916211603 78 330 9.0 13.0 0.00 4.26 2.03 86 1014.0
20210916211103 79 261 7.0 12.0 0.00 4.27 2.03 86 1013.9
20210916210602 79 229 7.0 12.0 0.00 4.28 2.03 85 1013.9
20210916210103 79 242 6.0 9.0 0.00 4.29 2.03 84 1013.9
20210916205603 80 266 7.0 9.0 0.00 4.31 2.03 84 1013.9
20210916205103 80 350 7.0 9.0 0.00 6.45 2.03 83 1013.9
20210916204603 80 263 6.0 9.0 0.00 6.48 2.03 82 1013.7
20210916204103 81 249 3.0 6.0 0.00 6.50 2.03 81 1013.5
20210916203603 80 323 3.0 7.0 0.00 6.52 2.03 81 1013.5
20210916203103 80 322 6.0 7.0 0.00 6.53 2.03 81 1013.5
20210916202603 79 307 3.0 7.0 0.00 6.57 2.03 82 1013.5
20210916202103 77 277 3.0 9.0 0.00 6.59 2.03 86 1013.6
20210916201606 76 291 3.0 9.0 0.00 6.61 2.03 85 1013.9
20210916201104 78 281 5.0 10.0 0.00 6.62 2.03 85 1013.9
20210916200603 78 274 3.0 5.0 0.00 6.63 2.03 84 1013.9
20210916200104 78 266 3.0 6.0 0.00 6.63 2.03 84 1014.2
20210916195602 78 242 2.0 7.0 0.00 6.64 2.03 83 1014.2
20210916195103 78 240 2.0 7.0 0.00 6.66 2.03 83 1014.2
20210916194603 78 226 5.0 7.0 0.00 6.67 2.03 82 1014.3
20210916194103 78 222 5.0 6.0 0.00 6.69 2.03 82 1014.6
20210916193603 78 218 3.0 5.0 0.00 6.74 2.03 84 1014.6
20210916193103 77 186 2.0 3.0 0.00 7.04 2.03 85 1014.6
20210916192603 77 229 0.0 5.0 0.00 7.31 2.03 86 1014.6
20210916192103 77 207 3.0 5.0 0.00 7.68 2.03 86 1014.6
20210916191604 77 223 1.0 10.0 0.00 7.91 2.03 86 1014.6
20210916191103 77 261 5.0 10.0 0.00 8.30 2.03 86 1014.6
20210916190603 77 299 9.0 10.0 0.00 8.52 2.03 86 1014.7
20210916190104 78 270 9.0 12.0 0.00 8.57 2.03 85 1014.9
20210916185603 78 253 9.0 12.0 0.00 8.63 2.03 83 1014.9
20210916185103 79 254 6.0 12.0 0.00 8.64 2.03 81 1014.9
20210916184603 80 226 10.0 13.0 0.00 8.65 2.03 80 1014.6
20210916184104 80 218 8.0 13.0 0.00 8.65 2.03 82 1014.6
20210916183603 80 201 8.0 8.0 0.00 8.65 2.03 80 1014.6
20210916183103 79 193 6.0 8.0 0.00 8.66 2.03 83 1014.6
20210916182603 79 181 7.0 9.0 0.00 8.66 2.03 85 1014.6
20210916182104 79 184 7.0 8.0 0.00 8.67 2.03 84 1014.6
20210916181603 79 185 5.0 7.0 0.49 8.68 2.03 84 1014.6
20210916181103 78 190 5.0 6.0 0.98 8.71 2.03 84 1014.6
20210916180603 79 197 1.0 5.0 0.98 8.77 2.03 83 1014.9
20210916180104 79 199 3.0 5.0 0.98 8.77 2.03 83 1014.9
20210916175603 78 203 3.0 5.0 0.98 8.78 2.03 82 1014.9
20210916175103 79 200 3.0 6.0 0.98 8.79 2.03 83 1014.9
20210916174603 79 195 5.0 6.0 0.98 8.82 2.03 82 1014.9
20210916174104 79 198 2.0 3.0 0.98 8.84 2.03 84 1015.2
20210916173603 79 170 0.0 0.0 0.98 8.87 2.03 85 1015.1
20210916173103 78 189 1.0 3.0 0.98 8.90 2.03 85 1014.9
20210916172603 78 195 1.0 12.0 0.98 8.91 2.03 86 1014.9
20210916172104 75 218 8.0 12.0 0.98 8.93 2.03 85 1014.9
20210916171603 76 218 9.0 12.0 0.49 8.44 1.54 85 1014.9
20210916171103 78 220 9.0 12.0 0.00 7.96 1.05 84 1014.9
20210916170603 78 227 9.0 10.0 0.00 7.97 1.05 84 1014.9
20210916170103 78 210 9.0 10.0 0.00 7.98 1.05 85 1014.9
20210916165603 78 206 10.0 12.0 0.00 8.00 1.05 84 1014.9
20210916165104 78 222 8.0 12.0 0.00 8.10 1.05 84 1015.0
20210916164603 77 214 12.0 14.0 0.00 8.12 1.05 84 1015.2
20210916164104 77 212 12.0 18.0 0.49 8.25 1.05 85 1015.2
20210916163603 79 199 13.0 18.0 0.49 8.31 1.05 85 1015.2
20210916163104 80 201 9.0 15.0 0.49 8.37 1.05 83 1015.2
20210916162604 80 211 6.0 8.0 0.49 8.40 1.05 83 1015.2
20210916162103 79 185 6.0 8.0 0.49 8.41 1.05 81 1015.2
20210916161604 79 191 7.0 8.0 0.49 8.42 1.05 82 1015.2
20210916161103 79 195 5.0 7.0 0.49 8.43 1.05 82 1015.2
20210916160603 78 197 6.0 9.0 0.49 8.43 1.05 84 1015.2
20210916160104 78 196 7.0 9.0 0.49 8.44 1.05 85 1015.2
20210916155603 78 185 7.0 10.0 0.49 8.45 1.05 85 1015.2
20210916155103 78 194 8.0 12.0 0.49 8.46 1.05 84 1015.2
20210916154603 78 187 8.0 12.0 0.55 8.46 1.05 83 1015.2
20210916154104 78 191 9.0 12.0 0.11 7.97 0.56 88 1013.9
20210916153604 77 178 7.0 7.0 0.11 7.98 0.56 82 1014.9
20210916153103 77 184 4.0 6.0 0.11 7.98 0.56 85 1014.9
20210916152604 75 178 2.0 6.0 0.11 7.98 0.56 87 1014.9
20210916152103 74 170 3.0 9.0 0.11 8.02 0.56 89 1014.9
20210916151603 74 172 7.0 9.0 0.11 8.02 0.56 90 1015.0
20210916151103 74 180 5.0 6.0 0.11 8.03 0.56 92 1015.2
20210916150603 73 185 6.0 9.0 0.11 8.03 0.56 92 1015.2
20210916150104 73 167 8.0 12.0 0.11 8.04 0.56 92 1015.2
20210916145603 73 167 11.0 20.0 0.12 8.06 0.56 91 1015.2
20210916145104 73 174 13.0 20.0 0.13 8.11 0.56 90 1015.2
20210916144604 73 218 16.0 22.0 0.09 8.07 0.50 90 1015.2
20210916144103 74 190 18.0 22.0 0.06 8.06 0.45 88 1014.9
20210916143604 77 208 14.0 20.0 0.11 8.08 0.45 83 1014.6
20210916143103 77 198 8.0 15.0 0.15 8.09 0.45 84 1014.2
20210916142604 77 181 13.0 15.0 0.33 8.14 0.45 85 1014.0
20210916142104 77 185 14.0 18.0 0.38 8.23 0.45 85 1014.0
20210916141603 76 153 13.0 18.0 0.38 8.27 0.45 84 1014.2
20210916141104 75 162 10.0 14.0 0.38 8.33 0.45 87 1014.2
20210916140604 74 163 14.0 15.0 0.38 8.40 0.45 88 1014.2
20210916140104 74 166 11.0 15.0 0.38 8.47 0.45 89 1014.2
20210916135603 74 168 8.0 10.0 0.37 8.50 0.44 90 1014.2
20210916135104 74 166 8.0 8.0 0.36 8.51 0.43 90 1014.2
20210916134604 73 172 3.0 3.0 0.34 8.52 0.41 90 1013.9
20210916134104 73 282 0.0 3.0 0.32 8.50 0.39 89 1013.9
20210916133604 73 250 3.0 21.0 0.27 8.46 0.34 89 1013.9
20210916133103 74 232 10.0 21.0 0.23 8.43 0.30 89 1014.1
20210916132604 75 228 14.0 21.0 0.05 8.27 0.12 87 1013.8
20210916132104 79 210 14.0 18.0 0.00 8.23 0.07 86 1013.5
20210916131604 79 201 6.0 7.0 0.00 8.25 0.07 88 1013.2
20210916131104 78 204 5.0 9.0 0.00 8.26 0.07 89 1013.2
20210916130604 78 195 7.0 9.0 0.00 8.28 0.07 88 1013.4
20210916130104 78 190 6.0 9.0 0.00 8.30 0.07 89 1013.5
20210916125603 78 192 7.0 8.0 0.00 8.31 0.07 90 1013.5
20210916125103 76 255 2.0 7.0 0.00 8.32 0.07 89 1013.5
20210916124604 75 26 0.0 0.0 0.00 8.33 0.07 88 1013.5
20210916124104 75 179 0.0 0.0 0.00 8.33 0.07 88 1013.5
20210916123604 75 29 0.0 0.0 0.00 8.34 0.07 88 1013.2
20210916123104 76 312 0.0 0.0 0.00 8.36 0.07 88 1013.1
20210916122604 75 57 0.0 0.0 0.00 8.43 0.07 88 1012.9
20210916122104 76 186 0.0 0.0 0.00 8.50 0.07 88 1012.9
20210916121604 76 30 0.0 2.0 0.00 8.61 0.07 88 1012.9
20210916121104 76 28 2.0 3.0 0.00 8.64 0.07 88 1012.9
20210916120604 76 351 0.0 3.0 0.00 8.67 0.07 87 1012.7
20210916120105 76 333 1.0 5.0 0.00 8.82 0.07 87 1012.5
20210916115603 76 285 1.0 8.0 0.00 8.88 0.07 87 1012.5
20210916115104 76 297 7.0 13.0 0.00 8.88 0.07 86 1012.9
20210916114604 77 299 3.0 13.0 0.00 8.88 0.07 86 1012.7
20210916114104 78 251 9.0 13.0 0.00 8.88 0.07 86 1012.5
20210916113604 78 166 12.0 13.0 0.00 8.88 0.07 87 1012.5
20210916113104 78 200 10.0 13.0 0.00 8.88 0.07 87 1012.9
20210916112603 78 193 10.0 13.0 0.00 8.88 0.07 87 1013.1
20210916112104 78 190 10.0 14.0 0.00 8.88 0.07 87 1013.1
20210916111604 78 199 11.0 13.0 0.06 8.88 0.07 87 1012.9
20210916111104 78 195 9.0 14.0 0.07 8.88 0.07 87 1012.9
20210916110605 78 189 13.0 14.0 0.07 8.88 0.07 88 1012.5
20210916110104 78 182 14.0 16.0 0.07 8.88 0.07 88 1012.5
20210916105604 78 181 12.0 13.0 0.07 8.88 0.07 87 1012.5
20210916105104 78 187 11.0 15.0 0.07 8.88 0.07 86 1012.5
20210916104604 78 180 14.0 15.0 0.07 8.88 0.07 87 1012.5
20210916104104 78 187 15.0 16.0 0.07 8.88 0.07 87 1012.5
20210916103604 78 187 12.0 16.0 0.07 8.88 0.07 87 1012.5
20210916103104 77 178 13.0 16.0 0.07 8.88 0.07 88 1012.5
20210916102604 77 174 12.0 18.0 0.07 8.88 0.07 91 1012.2
20210916102104 77 152 16.0 21.0 0.07 8.88 0.07 89 1012.2
20210916101604 77 179 14.0 21.0 0.01 8.82 0.01 85 1012.2
20210916101105 77 180 15.0 21.0 0.00 8.81 0.00 83 1012.0
20210916100603 77 177 19.0 23.0 0.00 8.81 0.00 85 1011.9
20210916100104 78 179 18.0 20.0 0.00 8.81 0.00 87 1011.9
20210916095603 78 171 16.0 20.0 0.00 8.81 0.00 87 1011.9
20210916095104 78 180 14.0 18.0 0.00 8.96 0.00 87 1011.9
20210916094604 78 176 16.0 18.0 0.00 9.06 0.00 86 1011.9
20210916094104 78 185 17.0 20.0 0.00 9.13 0.00 86 1011.7
20210916093604 78 181 18.0 20.0 0.00 9.13 0.00 87 1011.5
20210916093104 78 172 18.0 20.0 0.00 9.13 0.00 87 1011.5
20210916092604 78 181 18.0 20.0 0.00 9.13 0.00 86 1011.5
20210916092104 78 188 17.0 18.0 0.00 9.14 0.00 86 1011.9
20210916091605 78 178 17.0 18.0 0.00 9.16 0.00 86 1011.9
20210916091104 78 180 16.0 18.0 0.00 9.16 0.00 87 1011.9
20210916090605 78 167 17.0 20.0 0.00 9.16 0.00 87 1011.9
20210916090105 78 183 14.0 20.0 0.00 9.20 0.00 87 1011.9
20210916085604 78 179 15.0 16.0 0.00 9.21 0.00 87 1012.2
20210916085105 78 168 16.0 16.0 0.00 9.21 0.00 88 1012.2
20210916084604 78 167 14.0 15.0 0.00 9.21 0.00 88 1012.2
20210916084105 78 166 13.0 15.0 0.00 9.21 0.00 88 1012.2
20210916083604 78 174 13.0 15.0 0.00 9.21 0.00 87 1012.2
20210916083104 78 174 12.0 15.0 0.00 9.21 0.00 88 1012.4
20210916082604 77 177 12.0 14.0 0.00 9.21 0.00 88 1012.2
20210916082104 78 180 13.0 14.0 0.00 9.21 0.00 88 1012.2
20210916081604 78 177 10.0 16.0 0.00 9.21 0.00 88 1012.2
20210916081105 78 171 12.0 16.0 0.00 9.21 0.00 88 1012.2
20210916080604 78 174 10.0 16.0 0.00 9.21 0.00 88 1012.2
20210916080105 78 174 15.0 20.0 0.00 9.21 0.00 87 1012.2
20210916075605 78 178 16.0 20.0 0.00 9.21 0.00 87 1012.2
20210916075105 78 182 14.0 16.0 0.00 9.21 0.00 87 1012.2
20210916074605 78 179 11.0 17.0 0.00 9.21 0.00 87 1012.2
20210916074104 78 182 14.0 17.0 0.00 9.21 0.00 86 1012.5
20210916073604 78 180 14.0 16.0 0.00 9.21 0.00 86 1012.5
20210916073105 78 181 16.0 16.0 0.00 9.21 0.00 86 1012.5
20210916072605 78 181 12.0 15.0 0.00 9.21 0.00 86 1012.5
20210916072104 78 169 15.0 15.0 0.00 9.21 0.00 86 1012.5
20210916071605 78 181 13.0 15.0 0.00 9.21 0.00 86 1012.5
20210916071104 77 182 13.0 15.0 0.00 9.21 0.00 86 1012.5
20210916070604 78 171 13.0 16.0 0.00 9.21 0.00 87 1012.2
20210916070105 78 173 14.0 17.0 0.00 9.21 0.00 87 1012.2
20210916065605 78 177 15.0 17.0 0.00 9.21 0.00 86 1012.2
20210916065104 78 177 14.0 17.0 0.00 9.22 0.00 87 1012.2
20210916064605 78 175 15.0 17.0 0.00 9.22 0.00 87 1012.2
20210916064105 78 176 14.0 17.0 0.00 9.23 0.00 87 1012.2
20210916063604 78 184 13.0 17.0 0.00 9.23 0.00 87 1012.5
20210916063105 78 177 15.0 18.0 0.00 9.23 0.00 87 1012.5
20210916062605 78 167 15.0 18.0 0.00 9.23 0.00 88 1012.5
20210916062104 78 170 16.0 20.0 0.00 9.23 0.00 87 1012.5
20210916061604 78 176 17.0 20.0 0.00 9.23 0.00 87 1012.3
20210916061105 78 182 16.0 20.0 0.00 9.23 0.00 87 1012.3
20210916060604 77 180 16.0 20.0 0.00 9.23 0.00 87 1012.5
20210916060105 77 169 15.0 20.0 0.00 9.23 0.00 89 1012.5
20210916055605 77 175 14.0 20.0 0.00 9.23 0.00 87 1012.5
20210916055104 76 178 14.0 15.0 0.00 9.23 0.00 86 1012.5
20210916054605 76 178 12.0 15.0 0.05 9.23 0.00 86 1012.5
20210916054105 76 178 10.0 16.0 0.05 9.23 0.00 86 1012.5
20210916053605 76 180 12.0 16.0 0.06 9.23 0.00 86 1012.7
20210916053104 76 181 15.0 16.0 0.06 9.23 0.00 86 1012.8
20210916052605 76 184 14.0 16.0 0.06 9.23 0.00 86 1012.9
20210916052105 76 187 13.0 16.0 0.06 9.23 0.00 85 1012.9
20210916051604 76 187 14.0 16.0 0.06 9.23 0.00 85 1012.9
20210916051104 76 188 14.0 18.0 0.06 9.23 0.00 86 1012.9
20210916050605 76 186 10.0 18.0 0.06 9.23 0.00 88 1012.9
20210916050104 76 173 17.0 18.0 0.06 9.23 0.00 88 1012.9
20210916045604 75 185 15.0 17.0 0.06 9.23 9.23 88 1012.9
20210916045104 75 171 13.0 18.0 0.06 9.23 9.23 89 1012.9
20210916044604 76 178 16.0 21.0 0.04 9.21 9.21 89 1012.9
20210916044105 77 188 21.0 21.0 0.01 9.18 9.18 87 1012.9
20210916043604 77 170 18.0 22.0 0.00 9.17 9.17 88 1012.9
20210916043104 77 175 16.0 21.0 0.00 9.17 9.17 87 1012.9
20210916042605 77 175 18.0 21.0 0.00 9.17 9.17 87 1012.9
20210916042105 77 170 16.0 20.0 0.00 9.17 9.17 87 1013.2
20210916041605 77 178 16.0 20.0 0.00 9.17 9.17 86 1013.2
20210916041105 77 174 17.0 18.0 0.00 9.17 9.17 87 1013.2
20210916040605 77 173 14.0 18.0 0.00 9.17 9.17 87 1013.2
20210916040106 77 172 16.0 18.0 0.00 9.17 9.17 87 1013.2
20210916035605 76 169 16.0 17.0 0.00 9.17 9.17 87 1013.2
20210916035105 74 177 13.0 17.0 0.00 9.17 9.17 86 1013.2
20210916034605 77 186 13.0 16.0 0.00 9.17 9.17 86 1013.2
20210916034105 77 174 14.0 17.0 0.00 9.17 9.17 87 1013.2
20210916033608 77 172 13.0 17.0 0.00 9.18 9.17 87 1013.2
20210916033105 77 170 13.0 17.0 0.00 9.18 9.17 87 1013.2
20210916032608 77 169 13.0 17.0 0.00 9.18 9.17 88 1013.2
20210916032105 76 149 14.0 16.0 0.00 9.18 9.17 88 1013.1
20210916031605 77 155 15.0 18.0 0.00 9.18 9.17 89 1012.9
20210916031108 76 166 16.0 18.0 0.00 9.18 9.17 88 1012.9
20210916030605 76 174 13.0 17.0 0.00 9.18 9.17 88 1012.9
20210916030106 76 163 15.0 17.0 0.00 9.18 9.17 87 1012.9
20210916025608 76 158 15.0 20.0 0.00 9.18 9.17 88 1012.9
20210916025107 76 167 14.0 20.0 0.00 9.18 9.17 88 1012.9
20210916024605 76 179 15.0 16.0 0.00 9.18 9.17 88 1012.9
20210916024105 76 166 15.0 16.0 0.00 9.18 9.17 88 1012.9
20210916023605 76 163 15.0 16.0 0.00 9.18 9.17 88 1013.1
20210916023104 76 165 15.0 17.0 0.00 9.18 9.17 88 1013.1
20210916022605 76 174 14.0 17.0 0.00 9.18 9.17 88 1012.9
20210916022105 76 159 14.0 15.0 0.00 9.18 9.17 88 1012.9
20210916021604 76 150 14.0 15.0 0.00 9.19 9.17 88 1012.9
20210916021105 76 138 14.0 14.0 0.00 9.19 9.17 87 1012.9
20210916020606 76 164 12.0 15.0 0.00 9.19 9.17 88 1012.9
20210916020106 76 136 11.0 15.0 0.00 9.19 9.17 88 1012.9
20210916015605 76 148 12.0 13.0 0.00 9.20 9.17 88 1012.7
20210916015105 76 151 10.0 13.0 0.00 9.20 9.17 88 1012.5
20210916014605 76 161 12.0 14.0 0.00 9.20 9.17 87 1012.5
20210916014106 76 143 10.0 14.0 0.00 9.21 9.17 88 1012.5
20210916013605 75 156 10.0 14.0 0.00 9.21 9.17 88 1012.5
20210916013105 75 153 14.0 14.0 0.00 9.22 9.17 88 1012.5
20210916012605 75 154 13.0 15.0 0.01 9.22 9.17 88 1012.5
20210916012105 75 151 13.0 15.0 0.01 9.22 9.17 88 1012.2
20210916011605 75 149 13.0 15.0 0.01 9.22 9.17 88 1012.2
20210916011106 75 147 9.0 15.0 0.01 9.22 9.17 89 1012.2
20210916010605 75 153 12.0 16.0 0.01 9.22 9.17 88 1012.2
20210916010106 75 151 14.0 16.0 0.01 9.22 9.17 89 1012.2
20210916005604 75 145 12.0 15.0 0.01 9.23 9.17 89 1012.1
20210916005105 75 144 14.0 15.0 0.01 9.23 9.17 90 1011.9
20210916004605 75 163 12.0 15.0 0.01 9.23 9.17 90 1011.9
20210916004105 75 144 12.0 16.0 2.12 9.23 9.17 90 1011.9
20210916003606 75 155 15.0 16.0 2.12 9.24 9.17 90 1011.9
20210916003105 74 157 14.0 18.0 2.12 9.24 9.17 90 1011.9
20210916002604 74 153 14.0 18.0 2.11 9.23 9.16 90 1011.9
20210916002108 75 141 14.0 16.0 2.11 9.23 9.16 91 1011.9
20210916001605 75 148 13.0 16.0 2.11 9.24 9.16 90 1012.2
20210916001105 74 145 13.0 15.0 2.12 9.24 9.16 90 1012.0
20210916000605 74 127 12.0 15.0 2.12 9.24 9.16 90 1012.2
20210916000106 75 154 12.0 14.0 2.12 9.24 9.16 91 1012.2
20210915235605 71 151 12.0 14.0 2.12 9.24 9.16 90 1012.2
20210915235105 74 154 12.0 14.0 2.12 9.25 9.16 90 1012.2
20210915234605 74 154 13.0 14.0 2.12 9.25 9.16 90 1012.2
20210915234112 74 149 10.0 13.0 0.01 7.15 7.05 90 1012.2
20210915233605 74 148 12.0 13.0 0.01 7.15 7.05 90 1012.2
20210915233105 74 149 12.0 13.0 0.01 7.16 7.05 90 1012.2
20210915232604 74 148 12.0 12.0 0.01 7.16 7.05 90 1012.2
20210915232105 74 136 9.0 12.0 0.01 7.16 7.05 90 1011.9
20210915231604 74 130 8.0 12.0 0.01 7.16 7.05 90 1011.9
20210915231105 74 139 6.0 10.0 0.00 7.15 7.04 90 1011.9
20210915230605 74 151 8.0 10.0 0.00 7.15 7.04 90 1011.9
20210915230105 74 159 9.0 10.0 0.00 7.15 7.04 90 1011.9
20210915225605 74 158 8.0 10.0 0.00 7.15 7.04 90 1011.9
20210915225105 74 152 8.0 9.0 0.00 7.15 7.04 90 1011.9
20210915224606 74 133 7.0 8.0 0.00 7.15 7.04 91 1011.6